Tracking 19246 objects as of 19-Aug-2018
HD Live streaming from Space Station
objects crossing your sky now

FENGYUN 1C DEB

Track FENGYUN 1C DEB now!
10-day predictions


NORAD ID: 30022
Int'l Code: 1999-025MX
Perigee: 775.7 km
Apogee: 874.1 km
Inclination: 98.9 °
Period: 101.2 minutes
Semi major axis: 7195 km
RCS: 0.0783 m2 (small)
Launch date: May 10, 1999
Source: People's Republic of China (PRC)
Launch site: Taiyaun Space Center, China (TSC)

Note: This is SATELLITE DEBRIS
aabbcc
Your satellite tracking list
Your tracking list is empty




NASA's NSSDC Master Catalog

Two Line Element Set (TLE):
1 30022U 99025MX  18231.53566237 -.00000002 +00000-0 +18970-4 0  9996
2 30022 098.8716 342.3179 0068376 010.6041 048.4430 14.22253660602012
Source of the keplerian elements: AFSPC